Time,TemperatureF,DewpointF,PressureIn,WindDirection,WindDirectionDegrees,WindSpeedMPH,WindSpeedGustMPH,Humidity,HourlyPrecipIn,Conditions,Clouds,dailyrainin,SoftwareType,DateUTC
2013-07-27 00:02:00,71.0,47.0,-100.00,WSW,244,13.0,22.0,42,-99.99,,,-99.99,,2013-07-27 07:02:00,
2013-07-27 00:12:00,71.0,47.0,-100.00,WSW,244,13.0,22.0,42,-99.99,,,-99.99,,2013-07-27 07:12:00,
2013-07-27 00:22:00,71.0,47.0,-100.00,WSW,244,13.0,22.0,42,-99.99,,,-99.99,,2013-07-27 07:22:00,
2013-07-27 00:52:00,70.0,44.0,-100.00,WSW,250,10.0,19.0,39,-99.99,,,-99.99,,2013-07-27 07:52:00,
2013-07-27 01:02:00,70.0,44.0,-100.00,WSW,250,10.0,19.0,39,-99.99,,,-99.99,,2013-07-27 08:02:00,
2013-07-27 01:11:00,70.0,44.0,-100.00,WSW,250,10.0,19.0,39,-99.99,,,-99.99,,2013-07-27 08:11:00,
2013-07-27 03:12:00,67.0,40.0,-100.00,North,10,2.0,5.0,37,-99.99,,,-99.99,,2013-07-27 10:12:00,
2013-07-27 04:22:00,67.0,41.0,-100.00,NE,35,1.0,3.0,38,-99.99,,,-99.99,,2013-07-27 11:22:00,
2013-07-27 04:43:00,66.0,39.0,-100.00,SW,227,0.0,2.0,37,-99.99,,,-99.99,,2013-07-27 11:43:00,
2013-07-27 09:02:00,72.0,44.0,-100.00,SE,134,1.0,4.0,36,-99.99,,,-99.99,,2013-07-27 16:02:00,
2013-07-27 09:11:00,72.0,44.0,-100.00,SE,134,1.0,4.0,36,-99.99,,,-99.99,,2013-07-27 16:11:00,
2013-07-27 09:22:00,72.0,44.0,-100.00,SE,134,1.0,4.0,36,-99.99,,,-99.99,,2013-07-27 16:22:00,
2013-07-27 09:43:00,72.0,44.0,-100.00,SSE,152,2.0,6.0,36,-99.99,,,-99.99,,2013-07-27 16:43:00,
2013-07-27 09:53:00,72.0,44.0,-100.00,SSE,152,2.0,6.0,36,-99.99,,,-99.99,,2013-07-27 16:53:00,
2013-07-27 11:02:00,78.0,42.0,-100.00,NE,55,3.0,9.0,28,-99.99,,,-99.99,,2013-07-27 18:02:00,
2013-07-27 11:12:00,78.0,42.0,-100.00,NE,55,3.0,9.0,28,-99.99,,,-99.99,,2013-07-27 18:12:00,
2013-07-27 11:22:00,78.0,42.0,-100.00,NE,55,3.0,9.0,28,-99.99,,,-99.99,,2013-07-27 18:22:00,
2013-07-27 12:02:00,79.0,40.0,-100.00,South,179,5.0,13.0,25,-99.99,,,-99.99,,2013-07-27 19:02:00,
2013-07-27 12:12:00,79.0,40.0,-100.00,South,179,5.0,13.0,25,-99.99,,,-99.99,,2013-07-27 19:12:00,
2013-07-27 12:22:00,79.0,40.0,-100.00,South,179,5.0,13.0,25,-99.99,,,-99.99,,2013-07-27 19:22:00,
2013-07-27 12:32:00,81.0,41.0,-100.00,SSE,155,6.0,10.0,24,-99.99,,,-99.99,,2013-07-27 19:32:00,
2013-07-27 12:43:00,81.0,41.0,-100.00,SSE,155,6.0,10.0,24,-99.99,,,-99.99,,2013-07-27 19:43:00,
2013-07-27 12:53:00,81.0,41.0,-100.00,SSE,155,6.0,10.0,24,-99.99,,,-99.99,,2013-07-27 19:53:00,
2013-07-27 13:02:00,81.0,40.0,-100.00,WSW,239,8.0,18.0,23,-99.99,,,-99.99,,2013-07-27 20:02:00,
2013-07-27 13:12:00,81.0,40.0,-100.00,WSW,239,8.0,18.0,23,-99.99,,,-99.99,,2013-07-27 20:12:00,
2013-07-27 13:22:00,81.0,40.0,-100.00,WSW,239,8.0,18.0,23,-99.99,,,-99.99,,2013-07-27 20:22:00,
2013-07-27 13:32:00,82.0,37.0,-100.00,SSW,208,7.0,17.0,20,-99.99,,,-99.99,,2013-07-27 20:32:00,
2013-07-27 14:02:00,83.0,27.0,-100.00,SSW,210,9.0,19.0,13,-99.99,,,-99.99,,2013-07-27 21:02:00,
2013-07-27 14:12:00,83.0,32.0,-100.00,SSW,192,4.0,20.0,16,-99.99,,,-99.99,,2013-07-27 21:12:00,
2013-07-27 14:22:00,82.0,33.0,-100.00,SW,219,10.0,22.0,17,-99.99,,,-99.99,,2013-07-27 21:22:00,
2013-07-27 14:33:00,82.0,33.0,-100.00,SW,219,10.0,22.0,17,-99.99,,,-99.99,,2013-07-27 21:33:00,
2013-07-27 14:42:00,82.0,33.0,-100.00,SW,222,10.0,21.0,17,-99.99,,,-99.99,,2013-07-27 21:42:00,
2013-07-27 14:52:00,82.0,33.0,-100.00,SW,222,10.0,21.0,17,-99.99,,,-99.99,,2013-07-27 21:52:00,
2013-07-27 15:02:00,83.0,35.0,-100.00,SW,224,10.0,20.0,18,-99.99,,,-99.99,,2013-07-27 22:02:00,
2013-07-27 15:22:00,83.0,36.0,-100.00,WSW,241,9.0,21.0,19,-99.99,,,-99.99,,2013-07-27 22:22:00,
2013-07-27 15:32:00,83.0,36.0,-100.00,WSW,241,9.0,21.0,19,-99.99,,,-99.99,,2013-07-27 22:32:00,
2013-07-27 15:43:00,83.0,38.0,-100.00,SW,219,11.0,21.0,20,-99.99,,,-99.99,,2013-07-27 22:43:00,
2013-07-27 15:53:00,83.0,38.0,-100.00,SW,219,11.0,21.0,20,-99.99,,,-99.99,,2013-07-27 22:53:00,
2013-07-27 16:02:00,82.0,38.0,-100.00,SW,224,12.0,22.0,21,-99.99,,,-99.99,,2013-07-27 23:02:00,
2013-07-27 16:11:00,82.0,38.0,-100.00,SW,224,12.0,22.0,21,-99.99,,,-99.99,,2013-07-27 23:11:00,
2013-07-27 16:22:00,82.0,41.0,-100.00,SW,236,13.0,23.0,23,-99.99,,,-99.99,,2013-07-27 23:22:00,
2013-07-27 16:32:00,82.0,43.0,-100.00,WSW,237,14.0,27.0,25,-99.99,,,-99.99,,2013-07-27 23:32:00,
2013-07-27 16:44:00,82.0,43.0,-100.00,WSW,237,14.0,27.0,25,-99.99,,,-99.99,,2013-07-27 23:44:00,
2013-07-27 16:53:00,81.0,43.0,-100.00,WSW,241,15.0,26.0,26,-99.99,,,-99.99,,2013-07-27 23:53:00,
2013-07-27 17:02:00,81.0,43.0,-100.00,SW,230,14.0,26.0,26,-99.99,,,-99.99,,2013-07-28 00:02:00,
2013-07-27 17:12:00,81.0,43.0,-100.00,SW,230,14.0,26.0,26,-99.99,,,-99.99,,2013-07-28 00:12:00,
2013-07-27 17:22:00,81.0,43.0,-100.00,SW,229,12.0,22.0,26,-99.99,,,-99.99,,2013-07-28 00:22:00,
2013-07-27 17:32:00,81.0,43.0,-100.00,SW,229,12.0,22.0,26,-99.99,,,-99.99,,2013-07-28 00:32:00,
2013-07-27 17:44:00,81.0,43.0,-100.00,SW,229,12.0,22.0,26,-99.99,,,-99.99,,2013-07-28 00:44:00,
2013-07-27 17:52:00,80.0,41.0,-100.00,SW,234,13.0,24.0,25,-99.99,,,-99.99,,2013-07-28 00:52:00,
2013-07-27 18:02:00,80.0,41.0,-100.00,SW,234,13.0,24.0,25,-99.99,,,-99.99,,2013-07-28 01:02:00,
2013-07-27 18:22:00,79.0,40.0,-100.00,WSW,241,15.0,24.0,25,-99.99,,,-99.99,,2013-07-28 01:22:00,
2013-07-27 18:32:00,79.0,40.0,-100.00,WSW,241,15.0,24.0,25,-99.99,,,-99.99,,2013-07-28 01:32:00,
2013-07-27 18:43:00,79.0,41.0,-100.00,WSW,241,15.0,25.0,26,-99.99,,,-99.99,,2013-07-28 01:43:00,
2013-07-27 18:53:00,79.0,41.0,-100.00,WSW,241,15.0,25.0,26,-99.99,,,-99.99,,2013-07-28 01:53:00,
2013-07-27 19:02:00,78.0,40.0,-100.00,WSW,244,16.0,28.0,26,-99.99,,,-99.99,,2013-07-28 02:02:00,
2013-07-27 19:22:00,77.0,39.0,-100.00,WSW,240,16.0,28.0,26,-99.99,,,-99.99,,2013-07-28 02:22:00,
2013-07-27 19:32:00,76.0,41.0,-100.00,SW,234,16.0,29.0,29,-99.99,,,-99.99,,2013-07-28 02:32:00,
2013-07-27 19:42:00,75.0,41.0,-100.00,WSW,240,15.0,26.0,29,-99.99,,,-99.99,,2013-07-28 02:42:00,
2013-07-27 19:53:00,75.0,41.0,-100.00,WSW,240,15.0,26.0,29,-99.99,,,-99.99,,2013-07-28 02:53:00,
2013-07-27 20:02:00,75.0,42.0,-100.00,WSW,240,13.0,23.0,31,-99.99,,,-99.99,,2013-07-28 03:02:00,
2013-07-27 20:11:00,75.0,42.0,-100.00,WSW,240,13.0,23.0,31,-99.99,,,-99.99,,2013-07-28 03:11:00,
2013-07-27 20:22:00,75.0,42.0,-100.00,WSW,240,13.0,23.0,31,-99.99,,,-99.99,,2013-07-28 03:22:00,
2013-07-27 20:32:00,74.0,45.0,-100.00,WSW,243,13.0,28.0,35,-99.99,,,-99.99,,2013-07-28 03:32:00,
2013-07-27 20:42:00,74.0,45.0,-100.00,WSW,243,13.0,28.0,35,-99.99,,,-99.99,,2013-07-28 03:42:00,
2013-07-27 20:53:00,74.0,45.0,-100.00,WSW,243,13.0,28.0,35,-99.99,,,-99.99,,2013-07-28 03:53:00,
2013-07-27 21:02:00,74.0,45.0,-100.00,WSW,243,13.0,28.0,35,-99.99,,,-99.99,,2013-07-28 04:02:00,
2013-07-27 21:12:00,73.0,45.0,-100.00,WSW,250,13.0,28.0,37,-99.99,,,-99.99,,2013-07-28 04:12:00,
2013-07-27 21:22:00,73.0,45.0,-100.00,WSW,250,13.0,28.0,37,-99.99,,,-99.99,,2013-07-28 04:22:00,
2013-07-27 21:43:00,72.0,46.0,-100.00,WSW,251,15.0,26.0,39,-99.99,,,-99.99,,2013-07-28 04:43:00,
2013-07-27 21:53:00,71.0,45.0,-100.00,WSW,253,16.0,27.0,40,-99.99,,,-99.99,,2013-07-28 04:53:00,
2013-07-27 22:02:00,71.0,45.0,-100.00,WSW,253,16.0,27.0,40,-99.99,,,-99.99,,2013-07-28 05:02:00,
2013-07-27 22:12:00,71.0,46.0,-100.00,WSW,253,16.0,26.0,41,-99.99,,,-99.99,,2013-07-28 05:12:00,
2013-07-27 22:22:00,71.0,46.0,-100.00,WSW,253,16.0,26.0,41,-99.99,,,-99.99,,2013-07-28 05:22:00,
2013-07-27 22:32:00,71.0,46.0,-100.00,WSW,253,16.0,26.0,41,-99.99,,,-99.99,,2013-07-28 05:32:00,
2013-07-27 22:43:00,70.0,46.0,-100.00,WSW,248,18.0,29.0,43,-99.99,,,-99.99,,2013-07-28 05:43:00,
2013-07-27 22:52:00,70.0,46.0,-100.00,WSW,248,18.0,29.0,43,-99.99,,,-99.99,,2013-07-28 05:52:00,
2013-07-27 23:02:00,70.0,46.0,-100.00,WSW,241,19.0,31.0,43,-99.99,,,-99.99,,2013-07-28 06:02:00,
2013-07-27 23:12:00,70.0,46.0,-100.00,WSW,243,17.0,28.0,42,-99.99,,,-99.99,,2013-07-28 06:12:00,
2013-07-27 23:22:00,70.0,46.0,-100.00,WSW,243,17.0,28.0,42,-99.99,,,-99.99,,2013-07-28 06:22:00,
2013-07-27 23:32:00,70.0,45.0,-100.00,WSW,248,15.0,26.0,41,-99.99,,,-99.99,,2013-07-28 06:32:00,
2013-07-27 23:42:00,70.0,45.0,-100.00,WSW,248,15.0,26.0,41,-99.99,,,-99.99,,2013-07-28 06:42:00,
2013-07-27 23:52:00,70.0,45.0,-100.00,WSW,251,16.0,25.0,40,-99.99,,,-99.99,,2013-07-28 06:52:00,